Location: Betpouey
(42.8833°N, 0.0333°E)
Time: 21:08:31
(UTC+00:00)

Okean-O - Pass Details

Date: 01 December 2020
Orbit: 639 x 640 km, 98.2° (Epoch: 18 January)

Event Time Altitude Azimuth Distance (km) Brightness Sun altitude
Rises 17:57:01 0° 145° (SE) 2,932 5.8 -16.1°
Reaches altitude 10° 17:59:20 10° 137° (SE) 2,028 4.9 -16.5°
Maximum altitude 18:03:24 38° 70° (ENE) 989 3.1 -17.2°
Drops below altitude 10° 18:07:30 10° 3° (N) 2,042 5.0 -18.0°
Sets 18:09:49 0° 355° (N) 2,956 6.0 -18.4°
